This is the latest recevied weather packets stored in our database for station/object LU5DTF-1. If no packets are shown the sender has not sent any weather packets the latest 10 day(s).
| Time | Temp. | Humidity | Pressure | Rain* | Wind** | Luminosity | Snow |
|---|---|---|---|---|---|---|---|
| 1777596899 | 15.56° C | 71% | 1011.4 hPa | 0 mm | - | - | - |
| 1777596599 | 15.56° C | 71% | 1011.4 hPa | 0 mm | - | - | - |
| 1777596299 | 15.56° C | 69% | 1011.3 hPa | 0 mm | - | - | - |
| 1777596000 | 15.56° C | 68% | 1011.2 hPa | 0 mm | - | - | - |
| 1777595699 | 16.11° C | 68% | 1011.3 hPa | 0 mm | - | - | - |
| 1777595399 | 16.11° C | 68% | 1011.4 hPa | 0 mm | - | - | - |
| 1777595099 | 16.11° C | 68% | 1011.2 hPa | 0 mm | - | - | - |
| 1777594799 | 16.11° C | 68% | 1011.3 hPa | 0 mm | - | - | - |
| 1777594499 | 16.11° C | 68% | 1011.4 hPa | 0 mm | - | - | - |
| 1777594199 | 16.67° C | 65% | 1011.4 hPa | 0 mm | - | - | - |
| 1777593899 | 16.67° C | 66% | 1011.4 hPa | 0 mm | - | - | - |
| 1777593599 | 16.67° C | 65% | 1011.3 hPa | 0 mm | - | - | - |
| 1777593299 | 16.67° C | 65% | 1011.3 hPa | 0 mm | - | - | - |
| 1777592999 | 16.67° C | 64% | 1011.3 hPa | 0 mm | - | - | - |
| 1777592699 | 17.22° C | 63% | 1011.3 hPa | 0 mm | - | - | - |
| 1777592399 | 17.78° C | 61% | 1011.3 hPa | 0 mm | - | - | - |
| 1777592099 | 17.78° C | 61% | 1011.1 hPa | 0 mm | - | - | - |
| 1777591799 | 17.78° C | 59% | 1011.3 hPa | 0 mm | - | - | - |
| 1777591499 | 17.78° C | 61% | 1011.2 hPa | 0 mm | - | - | - |
| 1777591199 | 17.78° C | 60% | 1011.3 hPa | 0 mm | - | - | - |
| 1777590899 | 17.78° C | 61% | 1011.2 hPa | 0 mm | - | - | - |
| 1777590599 | 17.22° C | 61% | 1011.3 hPa | 0 mm | - | - | - |
| 1777590299 | 17.22° C | 61% | 1011.3 hPa | 0 mm | - | - | - |
| 1777589999 | 17.78° C | 62% | 1011.3 hPa | 0 mm | - | - | - |
| 1777589699 | 17.78° C | 62% | 1011.3 hPa | 0 mm | - | - | - |
* Rain latest hour (hover to see other rain measurements)
** Current wind speed in m/s (hover to see current wind gust speed)